This demonstration page uses our WeatherBlox Daily Observations layout. Learn more.

41.55636, -103.73856

Hourly Observations for May 20, 2019

Temp ( °F °C ) Dew Point ( °F °C ) Humidity (%) Winds ( mph kmh ) Pressure ( in mb ) Visibility ( mi km ) Precip ( " mm )
12:58 am 00:58 undefined 43 6.3 31 -0.7 61 61 E 17 28 29.99 1016 10 16.0934 0 0
1:58 am 01:58 undefined 41 5.1 30 -1 65 65 E 16 26 30.02 1017 10 16.0934 0 0
2:59 am 02:59 undefined 40 4.5 31 -0.7 69 69 E 18 30 30.02 1017 10 16.0934 0 0
3:58 am 03:58 undefined 38 3.2 30 -1 74 74 E 22 35 30.04 1017 10 16.0934 0 0
4:58 am 04:58 undefined 36 2.2 30 -1.3 78 78 E 16 26 30.03 1017 10 16.0934 0 0
6:58 am 06:58 Mostly Clear with Drizzle 35 1.5 31 -0.4 87 87 ESE 13 20 30.04 1017 10 16.0934 0 0
7:58 am 07:58 Mostly Clear with Light Rain 34 1.1 32 0 92 92 ESE 13 20 30.01 1016 10 16.0934 0.02 0.508
8:58 am 08:58 Mostly Clear with Light Drizzle 34 1 32 0.1 94 94 ESE 16 26 30 1016 10 16.0934 0.01 0.254
9:58 am 09:58 Mostly Clear with Light Drizzle 33 0.8 32 0 94 94 ESE 14 22 29.99 1016 10 16.0934 0.01 0.254
10:58 am 10:58 Mostly Clear with Light Drizzle 33 0.6 31 -0.3 94 94 SE 17 28 29.96 1014 10 16.0934 0.01 0.254
11:58 am 11:58 Partly Cloudy with Light Drizzle 33 0.7 32 -0.2 94 94 ESE 12 19 29.97 1015 7 11.26538 0.02 0.508
12:58 pm 12:58 Partly Cloudy with Light Drizzle 33 0.5 32 -0.2 95 95 SE 13 20 29.96 1015 9 14.48406 0.02 0.508
1:58 pm 13:58 Partly Cloudy with Light Showers 34 0.9 32 0.2 95 95 SE 15 24 29.98 1015 10 16.0934 0.01 0.254
2:58 pm 14:58 undefined 34 1.3 33 0.5 94 94 SSE 15 24 29.99 1016 10 16.0934 0 0
3:58 pm 15:58 Partly Cloudy with Light Showers 35 1.5 33 0.6 94 94 SSE 17 28 29.97 1015 10 16.0934 0.02 0.508
4:58 pm 16:58 undefined 36 2 34 0.9 93 93 SSE 15 24 29.97 1015 10 16.0934 0 0
5:58 pm 17:58 Partly Cloudy with Light Rain/Snow 35 1.4 33 0.7 95 95 SE 13 20 29.98 1015 10 16.0934 0.02 0.508
6:56 pm 18:56 Partly Cloudy with Light Snow Showers 32 0.2 31 -0.5 95 95 SSE 9 15 29.97 1015 5 8.0467 0.02 0.508
7:56 pm 19:56 Partly Cloudy with Light Showers 33 0.7 32 0 95 95 ESE 9 15 29.95 1014 7 11.26538 0.08 2.032
8:56 pm 20:56 Partly Cloudy with Light Showers 34 0.9 32 0.2 95 95 ESE 8 13 29.95 1014 9 14.48406 0.13 3.302
9:58 pm 21:58 Partly Cloudy with Snow 32 0.1 31 -0.5 96 96 ESE 10 17 29.95 1014 0.75 1.207005 0.04 1.016
10:58 pm 22:58 Partly Cloudy with Isolated Snow Showers 33 0.5 32 -0.1 96 96 E 10 17 29.91 1013 4 6.43736 0.09 2.286
11:58 pm 23:58 Partly Cloudy with Mist and Fog 34 0.9 33 0.3 96 96 E 12 19 29.91 1013 0.75 1.207005 0.09 2.286

Powered by AerisWeather